Westminster, MD

8:20 AM EST on November 13, 2019 (GMT -0500)
Carroll County Regional-Poage

Weather History for KDMW - September, 2019

Change the Weather History Date:

Monday, September 30, 2019

  Actual Average (KTHV) Record (KTHV)
Temperature  
Mean Temperature 71 °F -  
Max Temperature 73 °F 0 °F 82 °F (1998)
Min Temperature 68 °F - 33 °F (2000)
Cooling Degree Days 6    
Growing Degree Days 21 (Base 50)    
Moisture  
Dew Point 63 °F    
Average Humidity 79    
Maximum Humidity 83    
Minimum Humidity 73    
Precipitation  
Precipitation 0.01 in - - ()
Sea Level Pressure  
Sea Level Pressure 30.24 in    
Wind  
Wind Speed 4 mph (SSE)    
Max Wind Speed 10 mph    
Max Gust Speed -    
Visibility 10 miles    
Events Rain    
Averages and records for this station are not official NWS values.
T = Trace of Precipitation, MM = Missing Value Source: NWS Daily Summary

Daily Weather History Graph

Daily Weather History Graph

Search for Another Location

Airport or City:

Astronomy

Sep. 30, 2019 Rise Set
Actual Time 7:02 AM EDT 6:52 PM EDT
Civil Twilight 6:36 AM EDT 7:19 PM EDT
Nautical Twilight 6:04 AM EDT 7:50 PM EDT
Astronomical Twilight 5:33 AM EDT 8:21 PM EDT
Moon 9:04 AM EDT (9/30) 8:27 PM EDT (9/30)
Length of Visible Light 12h 43m
Length of Day
11h 49m
Waxing Crescent, 5% of the Moon is Illuminated
Sep 30
Waxing Crescent
Oct 5
First Quarter
Oct 13
Full
Oct 21
Last Quarter
Oct 27
New

Hourly Weather History & Observations

Time (EDT) Temp. Dew Point Humidity Pressure Visibility Wind Dir Wind Speed Gust Speed Precip Events Conditions
12:00 AM 69.8 °F 62.6 °F 78% 30.27 in 10.0 mi Calm Calm - N/A   Clear
12:20 AM 69.8 °F 62.6 °F 78% 30.27 in 10.0 mi Calm Calm - N/A   Clear
12:40 AM 71.6 °F 62.6 °F 73% 30.27 in 10.0 mi Calm Calm - N/A   Clear
1:20 AM 69.8 °F 62.6 °F 78% 30.26 in 10.0 mi Calm Calm - N/A   Scattered Clouds
1:40 AM 69.8 °F 62.6 °F 78% 30.26 in 10.0 mi Calm Calm - N/A   Clear
2:00 AM 69.8 °F 62.6 °F 78% 30.27 in 10.0 mi Calm Calm - N/A   Clear
2:20 AM 69.8 °F 64.4 °F 83% 30.27 in 10.0 mi Calm Calm - N/A   Scattered Clouds
2:40 AM 69.8 °F 64.4 °F 83% 30.27 in 10.0 mi Calm Calm - N/A   Mostly Cloudy
3:00 AM 69.8 °F 64.4 °F 83% 30.26 in 10.0 mi SE 4.6 mph - N/A   Overcast
3:20 AM 69.8 °F 64.4 °F 83% 30.26 in 10.0 mi SE 6.9 mph - N/A   Overcast
3:40 AM 69.8 °F 64.4 °F 83% 30.26 in 10.0 mi Calm Calm - N/A   Overcast
4:00 AM 69.8 °F 64.4 °F 83% 30.25 in 10.0 mi SE 4.6 mph - N/A   Overcast
4:20 AM 69.8 °F 64.4 °F 83% 30.25 in 10.0 mi SE 6.9 mph - N/A   Overcast
4:40 AM 69.8 °F 64.4 °F 83% 30.25 in 10.0 mi SE 5.8 mph - N/A   Overcast
5:00 AM 69.8 °F 64.4 °F 83% 30.25 in 10.0 mi SE 4.6 mph - N/A   Overcast
5:20 AM 69.8 °F 64.4 °F 83% 30.25 in 10.0 mi ESE 5.8 mph - N/A   Overcast
6:00 AM 69.8 °F 64.4 °F 83% 30.25 in 10.0 mi SE 8.1 mph - N/A   Overcast
6:20 AM 69.8 °F 64.4 °F 83% 30.26 in 10.0 mi SE 4.6 mph - N/A   Overcast
6:40 AM 69.8 °F 64.4 °F 83% 30.27 in 10.0 mi SE 3.5 mph - N/A   Overcast
7:00 AM 69.8 °F 64.4 °F 83% 30.27 in 10.0 mi SE 5.8 mph - N/A   Overcast
7:20 AM 69.8 °F 64.4 °F 83% 30.27 in 10.0 mi SE 5.8 mph - N/A   Overcast
7:40 AM 69.8 °F 64.4 °F 83% 30.28 in 10.0 mi SE 8.1 mph - N/A   Overcast
8:00 AM 69.8 °F 64.4 °F 83% 30.28 in 10.0 mi SE 5.8 mph - N/A   Overcast
8:20 AM 69.8 °F 64.4 °F 83% 30.28 in 10.0 mi SE 5.8 mph - N/A   Overcast
8:40 AM 69.8 °F 64.4 °F 83% 30.28 in 10.0 mi SE 4.6 mph - N/A   Overcast
9:00 AM 69.8 °F 64.4 °F 83% 30.28 in 10.0 mi SE 5.8 mph - N/A   Overcast
9:20 AM 69.8 °F 64.4 °F 83% 30.27 in 10.0 mi SE 6.9 mph - N/A   Overcast
9:40 AM 69.8 °F 64.4 °F 83% 30.29 in 10.0 mi SE 5.8 mph - N/A   Overcast
10:00 AM 69.8 °F 64.4 °F 83% 30.30 in 10.0 mi SE 6.9 mph - N/A   Overcast
10:20 AM 69.8 °F 64.4 °F 83% 30.30 in 10.0 mi SE 5.8 mph - N/A   Overcast
10:40 AM 69.8 °F 64.4 °F 83% 30.29 in 10.0 mi SE 5.8 mph - N/A   Overcast
11:00 AM 69.8 °F 64.4 °F 83% 30.29 in 10.0 mi SE 6.9 mph - N/A   Overcast
11:20 AM 69.8 °F 64.4 °F 83% 30.29 in 10.0 mi ESE 4.6 mph - N/A   Overcast
12:00 PM 69.8 °F 64.4 °F 83% 30.28 in 5.0 mi SSE 6.9 mph - 0.01 in Rain Light Rain
12:20 PM 71.6 °F 64.4 °F 78% 30.28 in 10.0 mi SSE 8.1 mph - 0.01 in   Light Drizzle
12:40 PM 71.6 °F 62.6 °F 73% 30.27 in 10.0 mi SSE 6.9 mph - 0.01 in   Overcast
1:00 PM 71.6 °F 62.6 °F 73% 30.27 in 10.0 mi SSE 9.2 mph - N/A   Overcast
1:20 PM 71.6 °F 62.6 °F 73% 30.26 in 10.0 mi SSE 8.1 mph - N/A   Overcast
1:40 PM 71.6 °F 62.6 °F 73% 30.26 in 10.0 mi SSE 8.1 mph - N/A   Overcast
2:00 PM 71.6 °F 62.6 °F 73% 30.24 in 10.0 mi South 9.2 mph - N/A Rain Light Rain
2:20 PM 71.6 °F 62.6 °F 73% 30.24 in 10.0 mi SSE 6.9 mph - N/A   Overcast
3:00 PM 71.6 °F 64.4 °F 78% 30.22 in 10.0 mi South 6.9 mph - N/A   Overcast
3:20 PM 71.6 °F 64.4 °F 78% 30.22 in 10.0 mi SSE 10.4 mph - N/A   Overcast
3:40 PM 73.4 °F 64.4 °F 73% 30.22 in 10.0 mi SE 6.9 mph - N/A   Overcast
4:00 PM 71.6 °F 62.6 °F 73% 30.21 in 10.0 mi SSE 10.4 mph - N/A   Overcast
4:20 PM 71.6 °F 62.6 °F 73% 30.20 in 10.0 mi SSE 10.4 mph - N/A   Overcast
4:40 PM 71.6 °F 62.6 °F 73% 30.20 in 10.0 mi SSE 8.1 mph - N/A   Overcast
5:00 PM 71.6 °F 62.6 °F 73% 30.20 in 10.0 mi South 8.1 mph - N/A   Overcast
5:20 PM 71.6 °F 62.6 °F 73% 30.20 in 10.0 mi SSE 5.8 mph - N/A   Overcast
5:40 PM 71.6 °F 62.6 °F 73% 30.20 in 10.0 mi South 6.9 mph - N/A   Overcast
6:00 PM 71.6 °F 62.6 °F 73% 30.20 in 10.0 mi SSE 3.5 mph - N/A   Light Drizzle
6:20 PM 69.8 °F 62.6 °F 78% 30.20 in 10.0 mi South 8.1 mph - N/A   Overcast
6:40 PM 69.8 °F 62.6 °F 78% 30.19 in 10.0 mi SSE 5.8 mph - N/A   Overcast
7:00 PM 69.8 °F 62.6 °F 78% 30.19 in 10.0 mi SSE 4.6 mph - N/A   Overcast
7:20 PM 69.8 °F 62.6 °F 78% 30.20 in 10.0 mi SSE 5.8 mph - N/A   Overcast
7:40 PM 69.8 °F 62.6 °F 78% 30.20 in 10.0 mi SSE 5.8 mph - N/A   Overcast
8:00 PM 69.8 °F 62.6 °F 78% 30.20 in 10.0 mi SSE 4.6 mph - N/A   Overcast
8:20 PM 69.8 °F 62.6 °F 78% 30.20 in 10.0 mi SSE 4.6 mph - N/A   Overcast
8:40 PM 69.8 °F 62.6 °F 78% 30.21 in 10.0 mi SSE 4.6 mph - N/A   Overcast
9:00 PM 69.8 °F 62.6 °F 78% 30.20 in 10.0 mi SSE 5.8 mph - N/A   Overcast
9:20 PM 69.8 °F 62.6 °F 78% 30.20 in 10.0 mi SSE 4.6 mph - N/A   Overcast
9:40 PM 69.8 °F 62.6 °F 78% 30.20 in 10.0 mi South 5.8 mph - N/A   Overcast
10:00 PM 69.8 °F 62.6 °F 78% 30.21 in 10.0 mi SSE 3.5 mph - N/A   Overcast
10:20 PM 69.8 °F 62.6 °F 78% 30.21 in 10.0 mi SSE 4.6 mph - N/A   Overcast
10:40 PM 69.8 °F 62.6 °F 78% 30.20 in 10.0 mi SE 6.9 mph - N/A   Overcast
11:00 PM 69.8 °F 62.6 °F 78% 30.21 in 10.0 mi SSE 5.8 mph - N/A   Overcast
11:20 PM 69.8 °F 62.6 °F 78% 30.20 in 10.0 mi SSE 5.8 mph - N/A   Overcast
11:40 PM 68.0 °F 62.6 °F 83% 30.20 in 10.0 mi SSE 5.8 mph - N/A   Overcast